Home > Weather > Chennai > Past weeks

Flag for India Past Weather in Chennai, Tamil Nadu, India — Yesterday and Last 2 Weeks

Now
95 °F

Sunny.


Feels Like: 103 °F
Forecast: 82 / 94 °F
Wind: 8 mph from West

Location: Madras / Minambakkam

Current Time: Aug 24, 2016 at 12:07:44 PM

Latest Report: Aug 24, 2016 at 11:30 AM


Visibility: 10 mi

Pressure: 29.65 "Hg

Humidity: 47%

Dew Point: 72 °F

Location of ChennaiLocation

Past Weather in Chennai — Graph

°F

Chennai Temperature Yesterday

Maximum temperature yesterday: 99 °F (at 3:00 PM)
Minimum temperature yesterday: 79 °F (at 6:00 AM)
Average temperature yesterday: 88 °F

High & Low Weather Summary for the Past Weeks

 TemperatureHumidityPressure
High100 °F (Aug 18, 2:00 PM)89% (Aug 11, 1:00 AM)29.77 "Hg (Aug 11, 1:00 AM)
Low77 °F (Aug 24, 1:30 AM)33% (Aug 16, 4:30 PM)29.50 "Hg (Aug 17, 4:30 PM)
Average89 °F62%29.65 "Hg
* Reported Aug 9 10:30 AM — Aug 24 11:00 AM, Chennai, Weather by CustomWeather, © 2016

Note: Actual official high and low records may vary slightly from our data, if they occured in-between our weather recording intervals... More about our weather records

Advertising

Chennai Weather History for the Previous 24 Hours

Scroll right to see more
 ConditionsComfort  
Time TempWeatherWind HumidityBarometerVisibility
11:00 AM
Wed, Aug 24
95 °FClear.8 mph50%29.68 "Hg5 mi
10:30 AM93 °FClear.8 mph53%29.68 "Hg4 mi
10:00 AM91 °FClear.8 mph52%29.71 "Hg4 mi
9:30 AM91 °FClear.12 mph56%29.71 "Hg4 mi
9:00 AM90 °FClear.7 mph63%29.71 "Hg4 mi
8:30 AM86 °FClear.7 mph70%29.71 "Hg4 mi
8:00 AM84 °FClear.6 mph74%29.71 "Hg4 mi
7:30 AM81 °FScattered clouds.5 mph84%29.68 "Hg4 mi
7:00 AM79 °FScattered clouds.5 mph89%29.68 "Hg4 mi
6:30 AM79 °FPartly sunny.3 mph84%29.68 "Hg4 mi
6:00 AM79 °FPassing clouds.5 mph84%29.68 "Hg4 mi
5:30 AM79 °FPassing clouds.3 mph89%29.65 "Hg4 mi
5:00 AM79 °FPassing clouds.3 mph89%29.65 "Hg4 mi
4:30 AM79 °FPartly cloudy.No wind89%29.65 "Hg4 mi
4:00 AM79 °FPartly cloudy.No wind89%29.65 "Hg4 mi
3:30 AM79 °FPartly cloudy.5 mph89%29.65 "Hg4 mi
3:00 AM77 °FPartly cloudy.7 mph89%29.65 "Hg4 mi
2:30 AM77 °FPartly cloudy.7 mph89%29.65 "Hg3 mi
2:00 AM77 °FPartly cloudy.9 mph89%29.68 "Hg3 mi
1:30 AM77 °FRain. Partly cloudy.9 mph89%29.68 "Hg3 mi
1:00 AM79 °FRain. Passing clouds.14 mph89%29.68 "Hg3 mi
12:30 AM81 °FLight rain. Passing clouds.14 mph89%29.68 "Hg3 mi
12:00 AM86 °FThunderstorms. Passing clouds.12 mph70%29.68 "Hg4 mi
11:30 PM
Tue, Aug 23
86 °FPassing clouds.9 mph70%29.68 "Hg4 mi
11:00 PM86 °FPassing clouds.6 mph75%29.68 "Hg4 mi
10:30 PM86 °FPassing clouds.5 mph75%29.68 "Hg4 mi
10:00 PM86 °FPassing clouds.6 mph75%29.68 "Hg4 mi
9:30 PM86 °FPassing clouds.6 mph79%29.68 "Hg4 mi
9:00 PM88 °FPassing clouds.7 mph75%29.65 "Hg4 mi
8:30 PM88 °FPassing clouds.9 mph70%29.65 "Hg4 mi
8:00 PM88 °FPassing clouds.8 mph70%29.65 "Hg4 mi
7:30 PM88 °FPassing clouds.7 mph70%29.62 "Hg4 mi
7:00 PM90 °FPassing clouds.8 mph67%29.62 "Hg4 mi
6:30 PM90 °FPassing clouds.8 mph67%29.62 "Hg4 mi
6:00 PM90 °FPassing clouds.8 mph67%29.62 "Hg4 mi
5:30 PM91 °FPassing clouds.9 mph59%29.59 "Hg4 mi
5:00 PM91 °FScattered clouds.12 mph59%29.59 "Hg4 mi
4:30 PM90 °FScattered clouds.12 mph67%29.59 "Hg4 mi
4:00 PM90 °FScattered clouds.14 mph67%29.59 "Hg4 mi
3:30 PM93 °FScattered clouds.9 mph59%29.59 "Hg4 mi
3:00 PM99 °FScattered clouds.7 mph44%29.59 "Hg4 mi
2:30 PM97 °FScattered clouds.9 mph47%29.59 "Hg4 mi
2:00 PM95 °FScattered clouds.9 mph53%29.62 "Hg4 mi
1:30 PM97 °FScattered clouds.9 mph47%29.62 "Hg5 mi
1:00 PM95 °FScattered clouds.8 mph50%29.65 "Hg5 mi
12:30 PM95 °FScattered clouds.9 mph50%29.65 "Hg5 mi
12:00 PM97 °FScattered clouds.10 mph47%29.68 "Hg5 mi
Weather by CustomWeather, © 2016

See weather overviewHow to use our weather pages